Weather History for Monroe, WI

Change the Weather History Date:

Thursday, October 17, 2013

  Actual Average Record
Temperature  
Mean Temperature 48 °F -  
Max Temperature 54 °F 0 °F 71 °F (1999)
Min Temperature 42 °F - 26 °F (2004)
Degree Days  
Heating Degree Days 17    
Moisture  
Dew Point 42 °F    
Average Humidity 80    
Maximum Humidity 100    
Minimum Humidity 54    
Precipitation  
Precipitation 0.01 in - - ()
Sea Level Pressure  
Sea Level Pressure 29.86 in    
Wind  
Wind Speed 4 mph (WSW)    
Max Wind Speed 14 mph    
Max Gust Speed -    
Visibility 8 miles    
Events Rain    
Averages and records for this station are not official NWS values.
T = Trace of Precipitation, MM = Missing Value Source: NWS Daily Summary

Daily Weather History Graph

Daily Weather History Graph

Search for Another Location

Airport:

Trip Planner

Search our weather history database for the weather conditions in past years. The results will help you decide how hot, cold, wet, or windy it might be!

Date:

Astronomy

Oct. 17, 2013 Rise Set
Actual Time 7:14 AM CDT 6:12 PM CDT
Civil Twilight 6:45 AM CDT 6:40 PM CDT
Nautical Twilight 6:12 AM CDT 7:13 PM CDT
Astronomical Twilight 5:40 AM CDT 7:46 PM CDT
Moon 5:27 PM CDT (10/17) 5:44 AM CDT (10/17)
Length of Visible Light 11h 55m
Length of Day
10h 58m
Waxing Gibbous, 98% of the Moon is Illuminated
Oct 17
Waxing Gibbous
Oct 18
Full
Oct 26
Last Quarter
Nov 3
New
Nov 9
First Quarter

Hourly Weather History & Observations

Time (CDT) Temp. Windchill Dew Point Humidity Pressure Visibility Wind Dir Wind Speed Gust Speed Precip Events Conditions
12:15 AM - - - N/A% 29.92 in 3.0 mi Calm Calm - N/A   Overcast
12:35 AM - - - N/A% 29.92 in 3.0 mi North 5.8 mph - N/A   Overcast
12:55 AM - - - N/A% 29.92 in 5.0 mi Calm Calm - N/A   Haze
1:15 AM - - - N/A% 29.91 in 10.0 mi Calm Calm - N/A   Overcast
1:35 AM - - - N/A% 29.91 in 10.0 mi Calm Calm - N/A   Overcast
1:55 AM - - - N/A% 29.91 in 10.0 mi Calm Calm - N/A   Overcast
2:15 AM - - - N/A% 29.90 in 10.0 mi Calm Calm - N/A   Overcast
2:35 AM - - - N/A% 29.90 in 10.0 mi Calm Calm - N/A   Overcast
2:55 AM 47.3 °F - 47.3 °F 100% 29.90 in 10.0 mi Calm Calm - N/A   Overcast
3:15 AM 47.5 °F - 47.5 °F 100% 29.89 in 10.0 mi Calm Calm - N/A   Overcast
3:35 AM - - - N/A% 29.89 in 10.0 mi Calm Calm - N/A   Overcast
3:55 AM - - - N/A% 29.88 in 10.0 mi South 3.5 mph - N/A   Overcast
4:15 AM - - - N/A% 29.89 in 7.0 mi SSW 4.6 mph - N/A   Overcast
4:35 AM - - - N/A% 29.89 in 5.0 mi SW 4.6 mph - N/A   Drizzle
4:55 AM - - - N/A% 29.88 in 2.5 mi Calm Calm - N/A   Drizzle
5:15 AM - - - N/A% 29.88 in 2.0 mi Calm Calm - N/A   Drizzle
5:35 AM - - - N/A% 29.87 in 2.0 mi WNW 5.8 mph - N/A   Light Drizzle
5:55 AM - - - N/A% 29.87 in 2.5 mi West 3.5 mph - N/A   Overcast
6:15 AM - - - N/A% 29.86 in 2.0 mi West 4.6 mph - N/A   Overcast
6:35 AM - - - N/A% 29.86 in 2.5 mi West 3.5 mph - N/A   Overcast
6:55 AM - - - N/A% 29.86 in 2.0 mi West 3.5 mph - N/A   Drizzle
7:15 AM - - - N/A% 29.86 in 2.5 mi West 6.9 mph - N/A Rain Light Rain
7:35 AM - - - N/A% 29.86 in 2.0 mi WNW 6.9 mph - N/A Rain Light Rain
7:55 AM - - - N/A% 29.87 in 3.0 mi West 8.1 mph - N/A   Drizzle
8:15 AM - - - N/A% 29.87 in 5.0 mi WNW 6.9 mph - N/A   Drizzle
8:35 AM - - - N/A% 29.87 in 7.0 mi WNW 8.1 mph - N/A   Drizzle
8:37 AM - - - N/A% 29.87 in 7.0 mi WNW 8.1 mph - N/A   Drizzle
8:55 AM 45.5 °F 41.8 °F 45.5 °F 100% 29.86 in 7.0 mi WNW 6.9 mph - N/A   Drizzle
9:15 AM 46.0 °F 42.5 °F 46.0 °F 100% 29.86 in 5.0 mi West 6.9 mph - 0.01 in   Drizzle
9:35 AM 46.2 °F 44.1 °F 46.2 °F 100% 29.86 in 7.0 mi West 4.6 mph - 0.01 in   Drizzle
9:55 AM 46.0 °F 41.9 °F 46.0 °F 100% 29.86 in 5.0 mi West 8.1 mph - 0.01 in   Drizzle
10:15 AM 45.7 °F 40.6 °F 45.7 °F 100% 29.86 in 7.0 mi West 10.4 mph - N/A   Drizzle
10:35 AM 45.7 °F 40.6 °F 45.7 °F 100% 29.86 in 7.0 mi West 10.4 mph - N/A   Drizzle
10:55 AM 46.0 °F 41.9 °F 46.0 °F 100% 29.86 in 7.0 mi West 8.1 mph - N/A   Drizzle
11:15 AM 46.4 °F 41.5 °F 46.4 °F 100% 29.86 in 10.0 mi West 10.4 mph - N/A   Drizzle
11:35 AM 46.4 °F 41.9 °F 46.4 °F 100% 29.86 in 7.0 mi West 9.2 mph - N/A   Drizzle
11:55 AM 46.8 °F - 46.8 °F 100% 29.86 in 10.0 mi West 11.5 mph - N/A   Drizzle
12:15 PM 46.6 °F - 46.6 °F 100% 29.86 in 10.0 mi West 8.1 mph - N/A Rain Rain
12:35 PM 46.8 °F - 46.8 °F 100% 29.85 in 10.0 mi West 9.2 mph - N/A   Light Drizzle
12:55 PM 47.8 °F - 45.0 °F 90% 29.85 in 10.0 mi West 8.1 mph - N/A   Overcast
1:15 PM 49.1 °F - 46.6 °F 91% 29.84 in 10.0 mi West 6.9 mph - N/A   Overcast
1:35 PM 49.1 °F - 42.6 °F 78% 29.83 in 10.0 mi West 6.9 mph - N/A   Overcast
1:55 PM 49.3 °F - 45.3 °F 86% 29.83 in 10.0 mi WSW 6.9 mph - N/A   Overcast
2:15 PM 50.2 °F - 41.5 °F 72% 29.83 in 10.0 mi West 8.1 mph - N/A   Overcast
2:35 PM 52.5 °F - 40.1 °F 63% 29.83 in 10.0 mi West 11.5 mph - N/A   Mostly Cloudy
2:55 PM 53.4 °F - 40.1 °F 61% 29.83 in 10.0 mi WNW 6.9 mph - N/A   Scattered Clouds
3:15 PM 54.3 °F - 39.0 °F 56% 29.82 in 10.0 mi WSW 11.5 mph - N/A   Mostly Cloudy
3:35 PM 54.7 °F - 38.7 °F 55% 29.82 in 10.0 mi WSW 13.8 mph - N/A   Mostly Cloudy
3:55 PM 54.1 °F - 37.9 °F 54% 29.82 in 10.0 mi West 9.2 mph - N/A   Scattered Clouds
4:15 PM 53.4 °F - 37.6 °F 55% 29.82 in 10.0 mi WSW 10.4 mph - N/A   Clear
4:35 PM 54.3 °F - 38.5 °F 55% 29.82 in 10.0 mi WSW 8.1 mph - N/A   Clear
4:55 PM 53.1 °F - 39.2 °F 59% 29.82 in 10.0 mi WSW 5.8 mph - N/A   Scattered Clouds
5:15 PM 52.3 °F - 39.2 °F 61% 29.82 in 10.0 mi WSW 5.8 mph - N/A   Scattered Clouds
5:35 PM 52.2 °F - 39.2 °F 61% 29.82 in 10.0 mi WSW 3.5 mph - N/A   Mostly Cloudy
5:55 PM 51.8 °F - 39.4 °F 63% 29.82 in 10.0 mi SW 4.6 mph - N/A   Scattered Clouds
6:15 PM 50.9 °F - 39.0 °F 64% 29.83 in 10.0 mi WSW 6.9 mph - N/A   Clear
6:35 PM 50.5 °F - 36.7 °F 59% 29.83 in 10.0 mi WSW 8.1 mph - N/A   Clear
6:55 PM 49.8 °F - 36.1 °F 59% 29.84 in 10.0 mi WSW 6.9 mph - N/A   Clear
7:15 PM 49.1 °F - 36.3 °F 61% 29.84 in 10.0 mi WSW 5.8 mph - N/A   Clear
7:35 PM 49.6 °F - 36.1 °F 60% 29.84 in 10.0 mi WSW 6.9 mph - N/A   Clear
7:55 PM 48.0 °F - 36.5 °F 64% 29.84 in 10.0 mi SW 4.6 mph - N/A   Clear
8:15 PM 48.0 °F - 36.5 °F 64% 29.83 in 10.0 mi SSW 5.8 mph - N/A   Clear
8:35 PM 46.4 °F 44.3 °F 36.7 °F 69% 29.84 in 10.0 mi SSW 4.6 mph - N/A   Scattered Clouds
8:55 PM 46.6 °F - 36.5 °F 68% 29.84 in 10.0 mi SSW 4.6 mph - N/A   Clear
9:15 PM 45.5 °F 42.5 °F 36.9 °F 72% 29.84 in 10.0 mi SSW 5.8 mph - N/A   Clear
9:35 PM 44.6 °F 40.7 °F 41.4 °F 88% 29.83 in 10.0 mi SSW 6.9 mph - N/A   Clear
9:55 PM 44.2 °F 41.0 °F 41.9 °F 91% 29.84 in 10.0 mi SSW 5.8 mph - N/A   Clear
10:15 PM 44.2 °F 40.3 °F 41.7 °F 91% 29.83 in 10.0 mi South 6.9 mph - N/A   Clear
10:35 PM 43.9 °F 40.5 °F 40.3 °F 87% 29.83 in 10.0 mi SSW 5.8 mph - N/A   Clear
10:55 PM 43.9 °F 39.9 °F 39.9 °F 86% 29.83 in 10.0 mi SSW 6.9 mph - N/A   Clear
11:15 PM 43.0 °F 38.8 °F 41.9 °F 96% 29.83 in 10.0 mi SSW 6.9 mph - N/A   Clear
11:35 PM 42.8 °F 38.6 °F 41.0 °F 93% 29.83 in 10.0 mi SSW 6.9 mph - N/A   Clear
11:55 PM 42.3 °F 37.3 °F 42.1 °F 99% 29.83 in 10.0 mi SSW 8.1 mph - N/A   Clear